Temperature
3 3 3 3 4 4 4 3 3 3 3 3 3 3 3 3 3 3 3 3 3 3 4 3 3 3 3 3 3 3 3 3 3 3 3 3 3 4 4 4 4 4 4
3 3 3 3 3 3 3 3 3 3 3 3 3 3 2 2 3 3 3 3 3 3 3 3 3 3 3 3 3 3 2 2 2 2 3 3 3 3 3 3 3 3 3
2 2 2 2 2 2 2 2 2 2 2 2 2 2 2 2 2 2 2 2 2 2 2 2 2 2 2 2 2 2 2 2 2 1 2 2 2 2 2 2 2 2 2
2 2 2 2 1 1 1 1 1 2 1 1 1 1 1 1 1 1 1 1 1 1 1 1 1 1 1 1 1 1 1 1 1 1 1 1 1 1 1 1 2 2 2
1 1 1 1 1 1 1 1 1 1 1 1 1 1 1 0 0 0 0 0 1 1 1 1 1 1 0 0 0 0 0 0 0 0 0 0 0 0 0 0 0 1 1
0 0 0 0 0 0 0 0 0 0 -0 -0 -0 -0 -0 -0 -1 -1 -0 -0 -0 -0 -0 -0 -0 -0 -0 -0 -0 -0 -0 -0 -0 -1 -1 -1 -0 -0 -0 -0 -0 -0 -0
-0 -0 -0 -0 -0 -0 -1 -1 -1 -1 -1 -1 -1 -1 -1 -1 -1 -1 -1 -1 -1 -1 -1 -1 -1 -1 -1 -1 -1 -1 -1 -1 -1 -1 -1 -1 -1 -1 -1 -1 -1 -1 -1
-1 -1 -1 -1 -1 -1 -1 -1 -1 -1 -2 -2 -2 -2 -1 -1 -1 -2 -2 -2 -2 -2 -2 -2 -2 -2 -1 -1 -1 -1 -1 -1 -1 -2 -2 -1 -1 -1 -1 -1 -1 -1 -1
-1 -1 -1 -1 -1 -1 -2 -2 -2 -2 -2 -2 -2 -2 -2 -2 -2 -2 -2 -2 -2 -2 -2 -2 -2 -2 -2 -2 -2 -2 -2 -2 -2 -2 -2 -2 -2 -2 -2 -2 -2 -2 -2
-2 -1 -2 -2 -2 -2 -2 -2 -2 -3 -3 -3 -3 -3 -3 -3 -3 -3 -3 -3 -3 -3 -3 -3 -3 -3 -3 -3 -3 -2 -2 -2 -2 -2 -2 -2 -2 -2 -2 -2 -2 -2 -3
-2 -2 -2 -2 -2 -2 -3 -3 -3 -3 -3 -3 -3 -3 -3 -3 -3 -3 -3 -3 -3 -3 -3 -3 -3 -3 -3 -3 -3 -3 -3 -3 -3 -3 -2 -2 -2 -2 -2 -3 -3 -3 -3
-2 -2 -3 -3 -3 -3 -3 -3 -3 -4 -4 -4 -4 -4 -4 -4 -4 -4 -4 -4 -4 -4 -4 -4 -4 -4 -4 -3 -3 -3 -3 -3 -3 -3 -3 -3 -3 -3 -3 -3 -3 -3 -3
-3 -3 -3 -3 -3 -4 -4 -4 -4 -4 -4 -4 -4 -4 -4 -4 -4 -4 -4 -4 -4 -4 -4 -4 -4 -4 -4 -4 -4 -4 -4 -4 -4 -4 -4 -4 -4 -4 -4 -4 -4 -3 -3
-3 -3 -4 -4 -4 -4 -4 -4 -4 -5 -5 -5 -5 -5 -4 -4 -4 -4 -4 -5 -4 -4 -4 -4 -4 -4 -4 -4 -4 -4 -4 -4 -4 -4 -4 -4 -4 -4 -4 -4 -4 -4 -4
-4 -4 -4 -4 -4 -4 -4 -5 -5 -5 -5 -5 -5 -5 -5 -5 -5 -5 -5 -5 -5 -5 -5 -5 -5 -5 -5 -5 -5 -5 -5 -5 -5 -5 -5 -5 -5 -5 -5 -5 -5 -5 -5
-4 -4 -5 -5 -5 -5 -5 -5 -5 -5 -5 -5 -5 -5 -5 -5 -5 -5 -5 -5 -5 -5 -5 -5 -5 -5 -5 -5 -5 -5 -5 -5 -5 -5 -5 -5 -6 -6 -6 -5 -5 -5 -5
-5 -5 -5 -5 -5 -5 -5 -5 -5 -5 -5 -5 -5 -5 -5 -5 -6 -6 -6 -6 -6 -6 -5 -5 -5 -6 -6 -5 -6 -6 -6 -6 -6 -6 -6 -6 -6 -6 -6 -6 -6 -6 -6
-5 -5 -5 -5 -6 -6 -6 -6 -6 -6 -6 -5 -5 -5 -6 -6 -6 -6 -6 -6 -6 -6 -6 -6 -6 -6 -6 -6 -6 -6 -6 -6 -6 -6 -6 -6 -7 -7 -7 -7 -7 -6 -6
-5 -6 -6 -6 -6 -6 -6 -6 -6 -6 -6 -6 -6 -6 -6 -6 -6 -6 -6 -6 -6 -6 -6 -6 -6 -6 -6 -6 -6 -6 -7 -7 -7 -7 -7 -7 -7 -7 -7 -7 -7 -7 -6
-6 -6 -6 -6 -6 -6 -6 -6 -6 -6 -6 -6 -6 -6 -6 -6 -6 -6 -6 -6 -6 -6 -6 -6 -6 -6 -6 -6 -7 -7 -7 -7 -7 -7 -7 -7 -7 -7 -7 -7 -7 -7 -7
-6 -6 -6 -6 -6 -6 -6 -6 -7 -7 -7 -6 -6 -6 -7 -7 -7 -6 -6 -6 -6 -6 -6 -6 -6 -6 -6 -7 -7 -7 -7 -7 -7 -7 -7 -7 -7 -7 -7 -7 -7 -7 -7
-6 -6 -7 -7 -7 -7 -7 -7 -7 -7 -7 -7 -6 -6 -7 -7 -7 -7 -7 -6 -6 -6 -6 -6 -6 -6 -7 -7 -7 -7 -7 -7 -7 -7 -7 -7 -7 -7 -7 -7 -7 -7 -7
-7 -7 -7 -7 -7 -7 -7 -7 -7 -7 -7 -7 -7 -7 -7 -7 -7 -7 -7 -7 -7 -6 -6 -7 -7 -7 -7 -7 -7 -7 -7 -7 -7 -7 -7 -7 -7 -8 -8 -8 -8 -7 -7
-7 -7 -7 -7 -7 -7 -7 -7 -7 -7 -7 -7 -7 -7 -7 -7 -7 -7 -7 -7 -7 -7 -7 -7 -7 -7 -7 -7 -7 -7 -7 -7 -7 -7 -8 -8 -8 -8 -8 -8 -8 -8 -8
-7 -7 -7 -7 -7 -7 -7 -7 -7 -7 -7 -7 -7 -7 -7 -7 -7 -7 -7 -7 -7 -7 -7 -7 -7 -7 -7 -7 -7 -7 -7 -7 -7 -8 -8 -8 -8 -8 -8 -8 -8 -8 -8
-7 -7 -7 -7 -8 -8 -8 -8 -8 -8 -8 -8 -8 -8 -8 -8 -7 -7 -7 -7 -7 -7 -7 -7 -7 -7 -7 -7 -7 -7 -7 -7 -7 -7 -8 -8 -8 -8 -8 -8 -8 -8 -8
Wind_Speed
0 1 1 1 1 1 1 1 2 2 2 2 2 3 3 3 3 2 2 2 3 3 3 3 3 3 2 2 2 3 3 4 6 5 3 3 3 3 4 5 6 6 7
0 0 1 1 0 1 1 2 2 2 3 3 3 3 3 3 3 2 3 3 2 3 3 3 4 3 3 3 3 4 4 4 5 6 4 3 3 3 3 4 5 6 7
1 1 1 1 1 1 1 1 2 2 2 3 3 3 3 3 3 3 3 3 2 3 3 4 4 3 4 3 3 3 4 4 3 5 5 3 3 3 3 4 4 4 7
1 1 1 1 1 1 1 2 2 2 2 2 2 3 3 3 3 3 3 3 3 3 3 3 4 3 4 4 4 4 3 4 4 4 5 4 3 3 3 3 4 3 5
1 1 1 1 1 2 2 2 2 2 2 2 3 3 3 3 3 3 2 3 2 3 3 4 4 4 5 5 4 3 3 4 4 4 5 4 4 3 3 3 4 4 5
1 1 1 1 1 2 2 2 2 2 2 2 2 2 3 4 5 6 4 3 3 3 4 4 4 4 5 6 7 7 6 5 5 5 5 6 6 4 4 4 4 4 5
1 1 1 1 1 1 2 2 2 2 2 2 2 2 2 3 6 6 6 4 3 4 4 4 4 4 5 4 5 7 7 8 8 7 7 7 6 5 5 5 5 6 7
1 1 1 1 1 1 1 2 2 2 2 2 3 3 2 4 6 6 6 4 3 4 4 4 4 4 4 4 4 4 4 5 6 5 6 7 6 5 5 6 6 6 6
1 1 1 0 1 1 2 2 2 2 2 2 3 3 3 4 6 6 6 3 3 4 4 4 4 4 6 6 4 4 5 5 6 7 8 8 9 9 7 4 5 5 6
1 1 1 1 1 1 2 2 2 2 2 3 3 3 3 4 6 7 6 3 3 3 3 4 5 5 6 7 4 4 5 4 4 5 5 6 5 6 7 4 4 5 5
1 1 1 1 1 1 2 2 2 2 2 3 3 3 3 4 5 7 7 3 3 3 3 3 3 7 7 7 6 4 5 5 4 3 3 4 4 3 3 4 4 4 5
0 1 1 1 1 1 1 2 2 2 2 3 3 3 3 3 5 6 7 7 6 3 3 3 4 7 7 8 6 5 7 6 3 3 3 3 3 4 3 4 5 5 5
1 2 2 2 2 2 2 2 2 2 2 3 3 3 3 3 3 6 7 8 8 5 4 6 7 7 7 6 6 6 5 3 3 3 3 3 3 4 4 4 4 4 5
1 2 2 2 2 2 2 2 2 2 3 3 3 3 3 3 3 3 3 4 6 5 4 5 7 7 6 5 5 4 3 3 3 3 3 3 3 3 3 4 4 4 4
2 2 2 2 2 2 2 2 3 3 4 4 3 3 4 4 5 7 5 4 4 4 4 3 3 3 3 3 3 3 2 3 3 3 3 3 4 4 4 3 3 3 3
2 2 2 2 2 2 2 3 4 5 6 6 6 5 5 7 9 9 9 9 8 7 5 3 3 3 3 3 3 3 3 3 3 3 3 3 4 4 4 4 3 3 4
3 3 2 2 2 2 2 2 3 5 6 5 6 7 7 7 8 8 8 7 7 6 3 3 3 3 3 3 3 3 4 4 3 3 4 4 4 4 4 4 4 4 4
3 3 3 2 2 2 3 3 3 3 4 4 5 6 7 7 7 7 7 5 4 3 2 3 3 3 3 4 4 4 4 4 3 4 4 4 4 4 4 4 4 4 4
3 2 2 2 3 3 2 2 3 3 3 4 3 4 6 7 6 6 5 3 3 3 3 3 3 3 4 4 4 4 4 4 4 4 4 4 4 4 4 4 4 6 5
3 4 3 2 2 2 2 2 3 3 3 3 4 4 4 4 3 4 3 3 3 3 3 4 4 4 4 4 4 4 4 4 4 4 4 5 4 4 5 5 5 5 5
2 3 4 3 2 2 2 3 3 3 3 3 4 5 6 4 3 4 3 3 3 4 4 4 4 4 4 4 4 5 5 5 4 4 5 5 5 4 4 4 5 5 5
2 2 2 2 2 2 3 3 3 3 4 4 4 5 7 4 3 4 4 4 4 4 4 4 4 4 4 4 4 5 5 5 5 5 5 5 5 5 4 4 4 4 4
2 2 2 2 2 4 3 3 3 3 4 4 4 4 4 3 3 4 4 4 4 4 5 4 4 4 5 5 5 5 5 5 5 5 5 5 5 4 4 5 5 4 4
2 2 2 2 2 3 3 3 3 3 3 4 4 4 4 4 4 5 4 4 4 5 5 5 5 6 7 7 6 6 7 7 6 5 5 5 5 4 4 4 4 5 5
2 2 2 2 3 3 3 3 3 3 3 3 4 4 4 4 4 4 4 4 5 5 5 6 6 6 7 8 8 7 8 8 7 6 5 4 4 4 4 4 4 4 4
2 2 2 2 2 2 3 3 3 3 3 3 4 4 4 4 4 4 4 4 5 5 5 6 7 8 8 8 8 9 9 8 7 7 5 3 3 4 3 3 3 3 3
Wind_Direction
319 333 336 303 326 337 320 327 333 345 349 337 331 330 326 324 324 318 309 307 299 302 304 284 273 272 268 263 256 253 251 251 264 275 270 285 288 292 294 291 284 279 278
332 344 315 287 299 324 324 341 340 337 341 337 338 336 331 330 327 312 303 307 306 310 306 296 287 281 273 270 264 256 253 247 253 271 277 280 278 280 293 299 298 293 289
7 347 330 318 348 331 329 333 331 334 335 332 335 329 327 325 323 313 308 316 320 314 309 298 289 284 277 272 272 264 261 263 257 266 274 271 278 289 295 298 301 301 298
4 359 348 341 354 345 338 331 323 322 323 328 330 327 328 327 319 311 316 316 319 320 315 307 297 283 284 284 279 274 274 275 267 269 277 279 281 285 285 295 301 296 294
3 360 338 346 4 6 353 338 329 324 326 335 337 335 331 325 319 318 313 312 318 320 315 313 306 299 292 285 284 285 278 273 273 271 278 281 277 285 279 281 285 294 291
337 335 351 359 14 9 356 351 349 345 337 340 333 336 334 323 325 326 321 313 310 306 303 304 304 295 296 298 296 293 282 270 268 267 273 274 272 275 277 277 283 291 290
310 333 338 341 358 355 344 354 348 340 335 333 323 328 331 327 327 328 328 322 317 308 304 304 305 311 311 296 297 301 297 286 274 264 267 272 273 278 282 278 273 275 275
251 278 306 336 348 347 344 339 329 330 332 332 327 325 328 325 327 325 326 330 321 313 310 312 308 306 309 308 306 305 297 292 280 270 264 273 276 273 268 275 277 281 281
241 251 296 353 347 339 326 319 320 326 326 323 317 319 321 317 321 320 318 312 309 307 307 308 305 299 310 312 304 297 297 296 304 300 289 283 286 291 289 281 280 284 287
247 258 279 288 287 292 298 308 316 314 306 308 311 314 307 304 310 313 312 300 298 302 308 308 309 309 311 317 307 290 291 294 306 319 319 310 302 302 308 296 279 282 289
276 293 283 274 267 269 287 299 304 306 306 306 303 304 302 303 309 309 309 305 289 296 303 309 310 311 310 314 312 295 291 300 302 304 308 309 305 301 306 312 300 276 277
253 272 269 263 269 282 276 290 294 295 297 299 301 304 305 305 311 309 309 306 304 291 290 293 296 309 311 314 312 309 308 309 303 304 305 305 308 310 307 310 307 294 281
238 258 268 272 269 259 255 263 281 287 287 291 294 299 308 315 315 316 315 313 309 300 289 296 302 309 312 311 314 313 314 307 296 293 293 293 295 295 299 303 304 304 299
239 260 270 262 274 272 274 266 264 269 275 283 289 294 303 308 309 313 313 315 313 308 301 300 305 307 308 307 307 310 306 293 286 280 285 290 294 294 294 297 302 307 306
251 260 265 262 258 267 280 274 271 259 258 265 270 276 285 290 294 302 304 301 301 294 302 300 303 306 308 305 301 299 296 295 295 288 286 290 296 303 302 304 304 314 306
245 252 254 257 261 263 273 298 300 287 286 282 282 283 285 286 291 296 299 298 299 299 298 288 285 289 287 290 292 292 288 288 287 290 290 289 292 296 301 304 306 305 303
238 248 254 260 260 265 274 284 301 312 305 298 295 297 297 298 299 301 301 298 297 300 291 281 279 280 282 284 284 284 285 284 286 289 291 292 291 290 292 297 298 296 294
240 254 255 250 251 255 261 270 278 290 304 308 307 304 306 306 304 307 307 307 303 303 286 279 280 281 283 284 285 286 288 290 288 287 287 287 286 288 287 288 290 290 291
241 240 242 247 250 253 258 267 275 281 286 296 308 309 309 309 308 312 316 306 294 293 293 288 284 282 281 281 281 282 284 285 287 287 285 284 283 283 285 287 287 289 288
243 251 254 249 248 253 258 262 270 276 283 289 293 298 307 309 307 311 312 302 292 290 290 289 289 286 286 283 281 280 281 279 278 276 278 280 280 278 277 279 282 284 282
243 251 257 260 252 254 259 262 267 271 277 285 288 290 296 296 294 296 298 296 289 287 287 288 287 288 286 283 280 276 275 274 270 268 270 273 275 275 272 271 274 277 279
238 245 250 255 261 262 268 269 271 273 277 282 290 293 296 300 293 294 293 292 290 289 288 286 283 283 282 279 277 276 274 275 273 269 267 268 270 271 269 268 273 278 277
230 239 255 263 262 266 275 273 273 273 276 280 285 292 298 298 294 290 289 289 291 290 288 284 284 284 282 276 271 268 269 272 271 268 270 271 268 265 265 266 267 275 277
223 234 246 254 260 261 264 269 271 273 276 278 281 287 291 294 293 291 292 292 293 290 284 280 278 279 283 284 280 274 272 275 274 267 264 266 266 263 263 265 265 269 273
228 239 249 252 256 261 267 272 273 275 279 283 286 289 292 293 293 294 296 295 294 291 288 282 277 279 281 283 283 282 283 283 281 275 265 258 259 256 256 260 262 267 271
246 252 257 259 260 263 267 272 277 280 281 285 287 288 290 291 292 294 296 294 295 292 290 286 281 282 283 284 284 286 290 290 287 281 269 253 259 259 253 251 256 259 265
Height
1486 1486 1487 1487 1487 1487 1487 1486 1486 1486 1486 1485 1485 1485 1484 1484 1484 1485 1485 1485 1485 1485 1485 1485 1485 1485 1485 1485 1485 1485 1485 1485 1482 1481 1483 1483 1482 1482 1482 1481 1480 1480 1479
1483 1483 1483 1484 1483 1483 1484 1483 1483 1483 1482 1481 1481 1481 1481 1480 1480 1480 1480 1480 1480 1480 1480 1480 1480 1480 1480 1480 1480 1480 1480 1479 1478 1476 1477 1477 1477 1477 1477 1476 1475 1475 1474
1480 1480 1480 1480 1479 1480 1480 1480 1480 1479 1479 1478 1478 1477 1477 1477 1476 1476 1476 1476 1476 1476 1476 1476 1476 1476 1475 1475 1475 1475 1474 1474 1474 1472 1471 1472 1472 1472 1471 1470 1470 1469 1468
1478 1478 1477 1477 1477 1477 1477 1477 1476 1476 1475 1475 1474 1474 1474 1473 1473 1473 1473 1472 1472 1472 1472 1472 1472 1471 1471 1471 1470 1470 1470 1469 1469 1468 1467 1467 1467 1466 1466 1464 1463 1463 1463
1475 1475 1474 1474 1474 1474 1474 1474 1473 1473 1472 1472 1471 1471 1470 1470 1470 1470 1469 1468 1468 1468 1468 1468 1468 1467 1467 1467 1466 1465 1465 1464 1464 1463 1462 1462 1461 1461 1460 1459 1458 1457 1457
1472 1472 1472 1472 1471 1471 1471 1471 1470 1470 1469 1468 1468 1468 1467 1467 1467 1467 1466 1465 1465 1464 1464 1464 1464 1463 1463 1462 1462 1461 1461 1460 1459 1459 1458 1457 1456 1457 1456 1455 1454 1453 1450
1470 1470 1470 1469 1469 1468 1468 1468 1467 1467 1466 1465 1465 1465 1464 1464 1464 1463 1462 1462 1461 1461 1461 1460 1460 1459 1459 1458 1457 1457 1457 1456 1456 1455 1454 1453 1452 1452 1452 1451 1450 1449 1446
1467 1467 1467 1467 1466 1466 1465 1465 1465 1464 1463 1463 1462 1462 1461 1461 1461 1460 1459 1459 1458 1457 1457 1457 1456 1455 1455 1454 1453 1452 1452 1451 1451 1450 1450 1449 1449 1448 1448 1447 1446 1444 1442
1465 1465 1465 1464 1464 1463 1463 1463 1462 1461 1461 1461 1460 1459 1458 1458 1457 1457 1456 1455 1454 1454 1453 1453 1453 1452 1451 1450 1450 1448 1447 1447 1446 1446 1446 1445 1444 1444 1443 1443 1441 1440 1437
1463 1463 1462 1462 1461 1461 1460 1460 1460 1459 1458 1458 1457 1457 1456 1455 1455 1454 1454 1452 1451 1450 1450 1449 1449 1448 1447 1447 1446 1445 1443 1442 1442 1441 1441 1440 1440 1439 1439 1438 1437 1436 1433
1460 1460 1460 1460 1459 1458 1458 1458 1457 1456 1456 1455 1455 1454 1453 1453 1452 1451 1451 1450 1448 1447 1446 1445 1445 1444 1444 1443 1442 1441 1440 1439 1438 1437 1436 1435 1435 1435 1434 1433 1433 1432 1430
1457 1457 1457 1457 1456 1456 1456 1455 1455 1454 1453 1452 1452 1451 1451 1450 1449 1448 1448 1447 1446 1444 1443 1442 1441 1441 1440 1440 1439 1438 1437 1436 1435 1433 1432 1431 1431 1430 1429 1429 1428 1427 1426
1454 1454 1454 1454 1454 1454 1453 1452 1452 1451 1451 1450 1449 1448 1447 1447 1446 1445 1444 1443 1442 1441 1440 1439 1438 1438 1437 1436 1435 1434 1433 1432 1431 1430 1428 1427 1427 1426 1426 1425 1423 1422 1422
1451 1451 1451 1451 1451 1451 1450 1450 1449 1449 1448 1447 1446 1445 1444 1444 1443 1442 1441 1440 1439 1438 1437 1436 1435 1434 1433 1432 1431 1430 1429 1428 1427 1426 1425 1424 1424 1423 1422 1421 1420 1418 1417
1448 1448 1448 1448 1448 1448 1448 1447 1447 1446 1446 1445 1444 1443 1442 1440 1440 1440 1438 1437 1436 1435 1434 1432 1431 1430 1429 1428 1427 1426 1426 1425 1424 1423 1422 1421 1420 1419 1418 1418 1417 1415 1414
1445 1445 1445 1445 1445 1445 1444 1444 1444 1444 1443 1442 1441 1440 1439 1438 1437 1436 1435 1434 1433 1432 1430 1428 1427 1427 1426 1424 1424 1423 1422 1421 1420 1419 1418 1417 1416 1416 1415 1414 1414 1412 1411
1442 1442 1442 1442 1442 1442 1441 1441 1440 1440 1440 1439 1438 1437 1436 1435 1434 1432 1431 1430 1429 1428 1427 1425 1424 1423 1422 1421 1421 1420 1419 1418 1417 1416 1415 1414 1413 1412 1412 1411 1410 1409 1408
1439 1439 1439 1439 1439 1439 1438 1438 1438 1436 1435 1434 1434 1434 1432 1431 1430 1429 1428 1427 1426 1425 1423 1422 1421 1420 1419 1418 1418 1416 1415 1414 1413 1412 1411 1411 1410 1409 1408 1408 1407 1406 1405
1436 1436 1436 1436 1436 1436 1436 1435 1435 1434 1433 1432 1431 1430 1430 1428 1427 1426 1425 1423 1422 1421 1420 1419 1418 1417 1416 1415 1414 1413 1412 1411 1410 1409 1408 1407 1407 1406 1405 1404 1403 1403 1402
1433 1433 1433 1433 1433 1433 1432 1432 1431 1431 1430 1429 1428 1427 1426 1425 1423 1422 1421 1420 1419 1418 1417 1416 1415 1414 1413 1412 1410 1409 1408 1407 1406 1406 1405 1404 1403 1402 1401 1401 1400 1399 1398
1430 1430 1430 1430 1430 1430 1429 1429 1428 1428 1427 1426 1425 1425 1424 1422 1421 1420 1418 1417 1416 1415 1414 1413 1412 1410 1409 1408 1407 1406 1405 1404 1403 1402 1401 1400 1399 1398 1398 1397 1396 1396 1395
1427 1427 1427 1427 1427 1427 1426 1426 1425 1425 1424 1423 1422 1422 1421 1419 1418 1417 1416 1415 1414 1412 1411 1410 1408 1407 1406 1405 1403 1402 1401 1400 1399 1399 1398 1397 1396 1395 1394 1393 1393 1392 1392
1424 1424 1424 1424 1424 1424 1423 1423 1422 1422 1421 1420 1419 1418 1417 1416 1415 1414 1413 1412 1410 1409 1408 1407 1405 1404 1402 1401 1400 1399 1398 1397 1396 1395 1394 1393 1392 1391 1390 1390 1389 1389 1388
1422 1422 1422 1421 1421 1421 1420 1420 1419 1419 1418 1417 1416 1415 1414 1413 1412 1411 1410 1409 1407 1406 1405 1403 1402 1400 1399 1398 1396 1395 1394 1393 1392 1391 1390 1389 1388 1388 1387 1387 1386 1386 1385
1419 1419 1419 1419 1418 1418 1417 1417 1416 1416 1415 1414 1413 1412 1411 1410 1409 1408 1407 1405 1404 1403 1401 1400 1399 1397 1396 1394 1393 1392 1391 1390 1389 1388 1387 1386 1385 1385 1384 1384 1383 1383 1383
1417 1416 1416 1416 1416 1415 1415 1414 1413 1413 1412 1411 1410 1409 1408 1407 1405 1404 1403 1402 1401 1399 1398 1397 1395 1394 1392 1391 1389 1388 1387 1386 1385 1384 1383 1383 1382 1382 1381 1381 1381 1381 1380